This demonstration page uses our WeatherBlox Daily Observations layout. Learn more.

Left ArrowRight Arrow

39.95238, -75.16362

Hourly Observations for May 19, 2015

Temp ( °F °C ) Dew Point ( °F °C ) Humidity (%) Winds ( mph kmh ) Pressure ( in mb ) Visibility ( mi km ) Precip ( " mm )
12:11 am 00:11 Cloudy with Drizzle 61 16.1 59 15 93 93 ENE 7 11 30.09 1019 2 2 0.00 0.03
12:54 am 00:54 Cloudy with Mist and Fog 61 16.1 59 15 93 93 ENE 3 6 30.07 1018 2 2 0.00 0.03
1:54 am 01:54 Cloudy with Mist and Fog 61 16.1 59 15 93 93 ENE 6 9 30.04 1017 2 2 0.00 0.00
2:25 am 02:25 Cloudy with Mist and Fog 61 16.1 59 15 93 93 E 7 11 30.03 1017 2 3 0.00 0.00
2:54 am 02:54 Cloudy with Light Rain 61 16.1 59 15 93 93 NE 6 9 30.02 1017 3 4 0.00 0.03
3:54 am 03:54 Cloudy with Mist and Fog 61 16.1 59 15 93 93 E 7 11 29.99 1016 3 4 0.01 0.25
4:54 am 04:54 Cloudy with Mist and Fog 61 16.1 59 15 93 93 NNE 7 11 29.99 1016 3 4 0.00 0.00
5:54 am 05:54 Cloudy with Mist and Fog 62 16.7 59 15 90 90 NE 6 9 29.98 1015 2 3 0.00 0.00
6:29 am 06:29 Cloudy with Mist and Fog 62 16.7 59 15 90 90 N 5 7 29.97 1015 3 5 0.00 0.00
6:54 am 06:54 Cloudy with Mist and Fog 62 16.7 59 15 90 90 NNE 3 6 29.98 1015 3 5 0.00 0.00
7:36 am 07:36 Cloudy with Mist and Fog 63 17 59 15 88 88 ENE 3 6 29.97 1015 3 4 0.00 0.00
7:54 am 07:54 Cloudy with Mist and Fog 63 17.2 60 15.6 90 90 VRB 5 7 29.97 1015 3 4 0.00 0.03
8:34 am 08:34 Cloudy with Mist and Fog 64 17.8 60 15.6 87 87 VRB 3 6 29.97 1015 3 4 0.00 0.00
8:36 am 08:36 Cloudy with Mist and Fog 64 18 61 16 88 88 Calm 29.97 1015 3 5 0.00 0.00
8:54 am 08:54 Cloudy with Haze 65 18.3 60 15.6 84 84 E 3 6 29.96 1015 3 5 0.00 0.00
9:38 am 09:38 Cloudy with Haze 66 18.9 60 15.6 81 81 Calm 29.97 1015 4 6 0.00 0.00
9:54 am 09:54 Cloudy with Haze 66 18.9 60 15.6 81 81 ESE 3 6 29.96 1015 3 5 0.00 0.00
10:07 am 10:07 Cloudy with Haze 67 19.4 61 16.1 81 81 SE 3 6 29.97 1015 3 5 0.00 0.00
10:54 am 10:54 Cloudy with Haze 68 20 61 16.1 78 78 Calm 29.95 1014 4 6 0.00 0.00
11:19 am 11:19 Cloudy with Haze 69 20.6 61 16.1 76 76 S 6 9 29.94 1014 4 6 0.00 0.00
11:51 am 11:51 Cloudy with Haze 72 22 63 17 73 73 S 6 9 29.94 1014 5 8 0.00 0.00
11:54 am 11:54 Cloudy with Haze 72 22.2 63 17.2 73 73 SSW 7 11 29.94 1014 5 8 0.00 0.00
12:54 pm 12:54 Mostly Cloudy with Haze 73 22.8 64 17.8 74 74 SW 8 13 29.92 1013 5 8 0.00 0.00
1:54 pm 13:54 Cloudy with Haze 76 24.4 65 18.3 69 69 WSW 10 17 29.90 1013 6 10 0.00 0.00
2:25 pm 14:25 Mostly Cloudy with Haze 77 25 65 18.3 66 66 SW 12 19 29.91 1013 6 10 0.00 0.00
2:32 pm 14:32 Hazy 77 25 65 18.3 66 66 SSW 10 17 29.88 1012 6 10 0.00 0.00
2:54 pm 14:54 Hazy 79 26.1 66 18.9 65 65 SW 8 13 29.88 1012 6 10 0.00 0.00
3:54 pm 15:54 Hazy 81 27.2 66 18.9 61 61 SSW 9 15 29.85 1011 6 10 0.00 0.00
4:54 pm 16:54 Hazy 83 28.3 65 18.3 55 55 SW 8 13 29.82 1010 6 10 0.00 0.00
5:54 pm 17:54 Hazy 82 27.8 67 19.4 60 60 SW 14 22 29.81 1010 6 10 0.00 0.00
6:25 pm 18:25 Partly Cloudy 82 27.8 67 19.4 60 60 SW 14 22 29.80 1009 8 13 0.00 0.00
6:54 pm 18:54 Mostly Sunny 81 27.2 66 18.9 61 61 SW 10 17 29.80 1009 9 14 0.00 0.00
7:25 pm 19:25 Mostly Sunny 80 26.7 63 17.2 56 56 SW 9 15 29.80 1009 10 16 0.00 0.00
7:54 pm 19:54 Mostly Sunny 78 25.6 64 17.8 62 62 SW 5 7 29.80 1009 10 16 0.00 0.00
8:54 pm 20:54 Mostly Clear 76 24.4 64 17.8 67 67 W 10 17 29.82 1010 10 16 0.00 0.00
9:54 pm 21:54 Clear 75 23.9 66 18.9 74 74 WSW 10 17 29.83 1010 10 16 0.00 0.00
10:54 pm 22:54 Clear 73 22.8 66 18.9 79 79 W 9 15 29.81 1010 10 16 0.00 0.00
11:54 pm 23:54 Clear 72 22.2 66 18.9 82 82 W 7 11 29.83 1010 10 16 0.00 0.00

Powered by AerisWeather